Temperature
16 16 15 15 15 15 15 15 15 15 15 15 15 15 15 15 15 15 15 15 15 15 15 15 15 15 15 15 15 15 15 15 15 15 15 15 15 15 15 15 15 15 15
16 15 15 15 15 15 15 15 15 15 15 15 15 15 15 15 15 15 15 15 15 15 15 15 15 15 15 15 15 15 15 15 15 15 15 15 15 15 15 15 15 15 15
15 15 15 15 15 15 15 15 15 15 15 15 15 15 15 14 14 14 14 14 14 14 14 14 14 14 14 14 14 14 14 15 14 14 14 14 15 14 14 14 14 14 14
15 15 15 15 15 15 15 15 15 15 15 15 14 14 14 14 14 14 14 14 14 14 14 14 14 14 14 14 14 14 14 14 14 14 14 14 14 14 14 14 14 14 14
15 15 15 15 15 15 15 15 15 15 14 14 14 14 14 14 14 14 14 14 14 14 14 14 14 14 14 14 14 14 14 14 14 14 14 14 14 14 13 13 13 13 13
15 15 15 15 15 15 15 14 14 14 14 14 14 14 14 14 14 14 14 14 14 14 14 13 13 14 14 14 13 13 13 13 13 14 14 14 13 13 13 13 13 13 13
15 15 15 14 14 14 14 14 14 14 14 14 14 13 13 13 13 13 13 13 13 13 13 13 13 13 13 13 13 13 13 13 13 13 13 13 13 13 13 13 13 13 13
15 14 14 14 14 14 14 14 14 14 14 14 14 13 13 13 13 13 13 13 13 13 13 13 13 13 13 13 13 13 13 13 13 13 13 13 13 13 13 13 13 12 12
14 14 14 14 14 14 14 14 14 14 14 14 14 13 13 13 13 13 13 13 13 13 13 13 13 13 13 13 13 13 13 13 13 13 13 12 12 13 12 12 12 12 12
14 14 14 14 14 14 14 14 14 13 14 14 14 14 13 13 13 12 12 13 13 13 13 13 13 13 13 13 13 13 13 13 13 13 12 12 12 12 12 12 12 12 12
14 14 14 14 14 14 14 13 13 13 13 13 13 13 13 13 13 13 12 12 12 12 12 13 13 13 13 12 12 12 12 12 12 12 12 12 12 12 12 12 12 12 12
14 14 14 14 13 13 13 13 13 13 13 13 13 13 13 13 13 13 12 12 12 12 12 12 12 12 12 12 12 12 12 12 12 12 12 12 12 12 12 12 12 12 12
13 13 13 13 13 13 13 13 13 13 13 13 13 13 13 13 13 13 12 12 12 12 12 12 12 12 12 12 12 12 12 12 12 12 12 12 12 12 12 12 12 11 11
13 13 13 13 13 13 13 13 13 13 13 13 13 13 13 12 12 12 12 12 11 11 11 11 11 11 12 12 12 12 12 12 12 12 12 12 12 12 12 11 11 11 11
13 13 13 13 13 13 13 13 13 13 13 13 12 12 12 12 12 12 12 12 12 11 11 11 11 11 11 11 11 11 11 11 11 11 11 11 11 11 11 11 11 11 11
13 13 13 13 13 13 13 13 13 13 12 12 12 12 12 12 12 12 12 12 12 12 11 11 11 11 11 11 11 11 11 11 11 11 11 11 11 11 11 11 11 11 11
13 13 13 13 13 12 12 12 12 12 12 12 12 12 12 12 12 12 12 11 11 11 11 11 10 10 10 11 11 11 11 11 11 11 11 11 11 11 11 11 10 10 10
13 13 12 12 12 12 12 12 12 12 12 12 12 12 12 11 11 11 11 11 11 11 11 10 10 10 10 10 10 10 10 10 10 10 10 10 10 10 10 10 10 10 10
12 12 12 12 12 12 12 12 12 12 12 12 11 11 11 11 11 11 11 11 10 10 10 10 10 10 10 10 10 10 10 10 10 10 10 10 10 10 10 10 10 10 10
12 12 12 12 12 12 12 12 12 11 11 11 11 11 11 11 11 10 10 10 10 10 10 10 9 9 9 9 9 9 9 9 9 9 9 9 9 9 9 10 10 10 10
12 12 12 12 11 11 11 11 11 11 11 11 11 11 10 10 10 10 10 10 9 9 9 9 9 9 9 9 9 9 9 9 9 9 9 9 9 9 9 9 9 9 9
11 11 11 11 11 11 11 11 11 11 11 11 11 10 10 10 10 9 9 9 9 9 9 9 9 9 9 9 8 8 8 8 8 8 8 8 8 9 9 9 9 9 9
11 11 11 11 11 11 11 11 11 11 11 10 10 10 10 9 9 9 9 9 9 8 8 9 8 9 8 8 8 8 8 8 8 8 8 8 8 8 8 8 8 8 8
11 11 11 11 11 11 11 11 10 10 10 10 10 10 10 9 9 9 9 9 8 8 8 8 8 8 8 8 8 8 7 7 7 7 7 7 8 8 8 8 8 8 8
10 10 10 10 10 10 10 10 10 10 10 10 9 9 9 9 9 9 8 8 8 8 8 8 8 8 7 7 7 7 7 7 7 7 7 7 7 7 7 7 7 7 7
10 10 10 10 10 10 10 10 10 10 9 9 9 9 9 9 8 8 8 8 8 8 8 7 7 7 7 7 7 7 7 6 6 6 6 6 6 6 6 7 7 7 7
Wind_Speed
3 3 3 4 5 6 6 5 5 6 6 7 7 8 7 7 7 7 7 10 10 11 12 13 12 12 12 12 11 11 11 11 11 11 11 11 10 10 9 8 7 7 6
3 3 4 4 4 5 6 6 5 5 5 5 6 6 7 7 7 8 7 8 10 11 12 11 11 11 11 11 10 10 10 10 10 10 10 10 10 9 9 9 9 8 8
4 4 3 3 3 6 7 6 6 6 6 6 6 6 5 6 7 7 7 7 8 10 10 10 10 10 9 9 9 9 9 9 9 9 9 9 9 9 8 8 8 8 8
6 4 3 3 4 6 5 4 4 5 5 5 5 4 4 4 6 6 6 6 7 7 8 9 9 9 8 8 8 8 7 7 8 8 8 8 8 8 8 8 8 7 7
6 5 3 3 5 5 4 4 4 4 4 4 4 4 4 4 4 5 5 5 6 6 6 7 8 7 7 6 6 6 6 6 7 7 7 7 7 7 7 7 7 7 7
6 6 4 4 4 4 4 4 4 4 3 3 5 5 4 4 4 4 3 4 5 5 4 5 5 4 5 6 5 5 5 5 5 6 6 6 6 6 6 6 6 5 5
5 5 3 3 3 4 3 4 4 4 3 3 4 4 4 4 4 3 3 3 4 4 4 4 3 3 2 4 4 5 5 5 5 5 5 5 5 5 5 5 5 5 6
4 4 3 3 3 3 4 3 3 3 2 2 3 3 2 3 4 3 3 3 3 4 4 3 3 3 2 2 3 4 4 4 4 4 4 5 4 4 4 4 4 4 5
3 3 3 2 3 3 3 3 3 4 2 1 2 3 3 2 1 3 3 3 3 2 2 2 3 2 2 2 2 3 3 3 3 3 4 4 4 4 4 4 4 4 3
2 3 3 2 2 2 3 3 3 3 3 2 1 1 2 4 3 0 3 3 3 2 2 1 2 2 2 2 2 2 3 3 3 3 3 3 3 3 3 3 2 2 2
1 2 3 2 2 2 3 3 3 3 2 2 2 1 2 2 2 3 1 2 2 2 2 1 1 2 2 2 2 2 2 2 2 2 1 2 2 2 2 2 1 2 2
1 1 2 2 2 2 3 3 3 3 2 2 2 2 2 2 2 2 2 1 0 2 2 1 1 1 1 1 1 2 2 2 1 1 1 1 2 2 2 2 1 2 2
1 2 1 2 2 2 3 3 3 3 3 3 2 2 2 1 2 3 3 2 1 1 2 2 1 1 1 1 1 1 1 1 1 1 1 1 2 2 3 3 2 2 2
3 3 2 2 2 2 3 3 3 2 2 2 2 2 2 1 2 2 3 3 1 1 1 2 2 1 1 1 1 1 1 1 1 2 2 1 2 2 3 2 2 2 2
3 3 3 2 1 2 3 4 3 3 3 2 2 2 2 1 1 2 2 3 3 2 1 2 1 2 1 2 2 2 1 1 1 1 1 1 1 1 1 1 2 1 1
2 3 4 3 2 2 3 3 3 2 3 2 2 2 1 1 1 1 2 2 2 3 2 2 1 1 1 2 3 2 2 2 2 1 1 1 1 1 2 2 2 2 2
2 3 4 4 3 3 3 3 3 4 3 2 1 2 2 2 2 1 2 2 1 2 2 1 0 1 1 1 2 2 2 2 2 2 1 1 1 1 2 3 3 3 3
2 2 3 3 3 3 3 3 4 4 4 3 3 3 2 2 2 2 2 1 1 2 3 2 1 0 1 1 1 1 2 2 2 2 2 2 2 1 2 2 3 4 4
2 1 2 2 3 3 3 3 4 4 4 4 4 4 4 3 2 1 2 2 1 1 2 2 1 1 1 0 1 1 1 1 2 3 2 3 3 3 3 3 3 4 5
2 2 2 2 3 3 3 4 4 3 3 3 3 4 4 5 4 3 3 2 2 2 1 2 1 1 1 1 0 0 2 2 2 2 3 3 3 4 4 4 4 4 4
2 2 2 1 2 2 3 3 4 4 3 3 2 3 4 5 5 4 3 3 3 2 2 2 2 1 1 1 1 1 1 2 2 1 1 2 2 2 3 5 5 5 5
2 2 2 2 2 2 3 4 4 4 4 4 3 3 3 3 4 4 4 4 5 4 4 3 2 2 3 3 2 2 1 1 2 2 1 3 1 2 3 4 6 6 6
2 2 2 2 3 4 4 4 5 4 4 4 4 3 3 3 3 3 3 3 4 5 5 5 4 4 4 4 4 3 3 3 3 3 1 3 2 3 4 6 7 7 7
2 3 3 3 3 4 4 4 4 4 3 4 4 5 4 4 3 3 3 2 2 3 5 4 5 6 5 5 5 5 4 2 2 2 2 2 2 3 4 4 7 7 8
2 3 3 4 3 4 5 5 4 3 3 3 4 4 4 4 5 5 4 3 2 3 4 4 5 5 5 5 5 2 1 1 2 3 2 2 2 2 3 3 5 7 7
3 3 3 4 4 4 5 6 5 3 3 3 2 3 5 6 6 6 5 4 4 4 2 2 2 2 2 3 4 4 4 3 2 3 2 2 2 1 2 3 3 4 5
Wind_Direction
67 63 54 49 51 65 72 72 73 76 76 76 86 88 83 83 80 77 84 90 98 102 98 95 93 93 94 93 90 90 88 89 86 84 82 82 83 84 88 91 96 99 101
74 70 66 54 52 68 77 81 80 78 74 77 78 81 82 84 83 82 80 85 92 100 99 96 94 96 96 95 94 93 91 90 88 86 85 85 85 84 84 85 87 89 93
81 75 75 69 57 75 80 78 73 76 79 77 72 73 78 80 83 84 82 80 85 92 95 96 96 95 97 95 95 95 93 90 91 91 88 87 86 86 86 85 84 85 88
89 80 79 73 71 78 78 84 75 77 72 71 71 69 71 79 82 85 86 83 84 84 85 90 91 90 96 98 102 98 93 91 90 90 88 88 87 87 87 86 85 86 87
89 90 85 78 82 78 76 91 77 87 86 78 81 72 62 67 73 84 80 84 86 85 83 83 84 87 92 95 102 103 96 93 94 92 89 90 90 89 88 85 88 91 88
83 86 86 79 85 88 80 86 88 78 89 91 89 70 54 55 61 67 74 79 80 81 83 78 75 83 90 90 98 107 103 100 98 97 94 92 93 92 89 89 89 92 92
85 86 89 89 94 105 109 108 103 91 76 83 86 62 35 39 52 47 51 62 64 67 77 86 85 80 86 88 96 104 103 101 105 106 108 107 102 98 94 95 92 91 91
93 101 103 117 114 113 101 99 106 102 91 88 109 101 54 13 14 26 34 51 46 54 61 82 83 85 87 94 111 108 104 110 109 111 119 119 115 109 101 103 96 95 95
101 108 120 124 123 124 133 132 124 120 126 61 93 125 132 181 325 356 16 32 36 49 39 53 65 69 100 107 121 124 118 110 111 115 126 129 124 122 119 113 106 102 105
121 119 117 125 131 133 140 154 140 134 133 139 70 75 134 149 141 65 352 2 17 35 28 51 54 56 83 112 124 130 126 115 108 112 131 136 134 129 122 115 114 114 116
106 127 126 128 138 146 151 148 129 127 131 142 148 123 91 82 96 129 146 338 2 355 357 20 56 42 65 109 134 128 131 129 127 116 127 146 145 135 123 122 125 130 120
273 243 138 127 139 149 154 153 148 139 136 128 120 117 131 129 144 139 151 173 311 315 343 5 40 42 31 88 128 129 146 147 146 146 123 174 167 150 142 145 135 132 134
215 229 177 158 156 156 153 143 136 141 141 133 125 119 124 139 144 143 140 155 154 318 350 350 332 350 23 52 68 97 128 171 200 232 224 201 200 180 160 151 135 124 123
207 201 191 171 164 155 148 142 137 149 139 140 136 129 116 122 139 146 154 149 127 2 353 295 326 352 22 36 9 71 57 181 237 242 225 210 198 182 170 161 142 130 121
201 190 186 174 179 168 159 151 150 157 143 142 145 141 136 161 151 139 144 154 156 177 255 276 301 317 355 36 30 56 40 19 348 240 200 206 208 195 190 190 185 178 179
203 179 180 174 179 180 164 159 155 153 139 148 150 137 132 149 140 124 132 125 140 164 201 244 250 302 12 37 25 33 23 18 19 46 69 55 241 228 217 211 206 205 219
171 170 174 172 180 179 173 165 168 158 153 157 152 146 153 142 128 112 116 120 127 135 160 245 281 357 25 31 31 18 11 11 10 11 1 317 290 247 236 234 229 215 219
166 171 163 163 172 171 171 172 177 167 163 166 170 157 169 146 131 138 139 149 163 158 154 178 242 338 278 258 60 19 12 356 337 337 334 329 309 277 242 250 241 226 232
176 170 154 174 186 182 179 178 170 171 176 181 180 176 181 158 153 156 153 159 168 155 140 159 203 219 267 308 15 348 352 4 327 324 314 309 299 285 261 262 259 249 235
184 184 183 190 198 197 195 189 179 177 181 186 189 184 183 176 176 171 162 163 153 137 136 155 181 207 227 272 141 282 321 318 308 324 315 305 298 283 266 264 261 256 237
192 194 182 181 201 201 203 195 189 184 181 181 186 187 187 186 183 180 174 172 161 156 160 173 189 196 220 226 229 226 266 302 306 289 304 302 298 295 275 266 258 254 247
204 194 193 188 209 221 203 186 179 180 179 180 190 196 196 189 189 190 189 182 174 173 185 189 210 217 232 221 206 217 223 283 286 270 250 284 269 273 271 256 254 252 249
206 206 212 202 218 226 206 195 189 178 182 189 193 196 206 206 196 191 206 206 209 206 194 189 203 219 219 217 197 207 222 232 246 242 220 271 276 273 274 271 262 250 247
206 212 214 213 222 232 214 201 191 181 182 198 202 197 194 199 202 180 177 193 223 235 223 213 209 223 225 212 203 205 213 231 271 257 191 246 269 272 284 272 262 252 249
226 224 215 208 219 241 226 211 189 180 189 206 211 201 193 198 209 189 174 193 231 256 250 248 245 243 241 227 195 155 165 192 274 267 218 211 254 285 286 273 262 258 250
227 227 233 224 220 235 234 217 199 184 198 215 222 218 213 209 208 198 190 196 222 238 229 245 265 264 243 224 209 190 190 204 245 254 226 199 240 284 292 273 263 263 253
Height
1525 1524 1523 1523 1522 1522 1522 1521 1521 1522 1523 1523 1525 1525 1526 1526 1527 1527 1528 1528 1528 1528 1528 1528 1528 1528 1529 1529 1530 1530 1530 1531 1531 1531 1532 1532 1532 1533 1533 1533 1534 1534 1534
1526 1525 1525 1525 1524 1524 1524 1524 1524 1524 1525 1525 1526 1527 1528 1528 1529 1529 1529 1529 1529 1530 1530 1530 1530 1530 1530 1531 1531 1531 1531 1531 1532 1532 1532 1533 1533 1534 1534 1534 1534 1534 1534
1527 1527 1526 1526 1526 1526 1526 1526 1526 1526 1527 1527 1528 1529 1529 1530 1530 1530 1530 1531 1531 1531 1531 1531 1531 1531 1532 1532 1532 1532 1532 1532 1532 1533 1533 1533 1534 1534 1534 1534 1534 1534 1534
1528 1528 1528 1527 1528 1528 1528 1528 1528 1528 1528 1528 1529 1530 1531 1531 1532 1532 1532 1532 1532 1532 1532 1533 1533 1533 1533 1533 1533 1533 1533 1533 1533 1533 1533 1534 1534 1534 1534 1534 1534 1534 1535
1529 1529 1528 1528 1529 1529 1529 1529 1529 1529 1529 1530 1530 1531 1532 1532 1533 1533 1533 1533 1533 1533 1533 1534 1534 1534 1534 1534 1534 1534 1534 1534 1534 1534 1534 1534 1534 1534 1534 1534 1534 1534 1535
1529 1529 1529 1529 1529 1529 1529 1530 1530 1530 1530 1531 1531 1532 1533 1534 1534 1534 1534 1534 1535 1535 1535 1535 1535 1535 1535 1535 1534 1534 1534 1534 1534 1534 1534 1534 1534 1534 1534 1534 1534 1534 1535
1529 1529 1529 1529 1529 1530 1530 1530 1531 1531 1532 1532 1532 1533 1535 1535 1536 1536 1536 1536 1536 1536 1536 1536 1536 1536 1535 1535 1535 1535 1534 1534 1534 1534 1534 1534 1534 1534 1534 1534 1534 1534 1534
1529 1529 1528 1529 1529 1530 1530 1530 1531 1531 1532 1533 1533 1533 1535 1537 1536 1537 1537 1537 1536 1536 1536 1536 1536 1536 1536 1536 1535 1535 1535 1534 1534 1534 1534 1534 1534 1534 1534 1534 1534 1534 1534
1528 1528 1528 1529 1529 1529 1530 1530 1531 1531 1532 1533 1533 1534 1534 1535 1537 1538 1537 1537 1537 1537 1537 1537 1536 1536 1536 1536 1535 1535 1535 1535 1534 1534 1534 1534 1534 1534 1534 1534 1534 1534 1534
1527 1528 1528 1528 1529 1529 1529 1530 1531 1531 1532 1532 1533 1533 1534 1534 1535 1537 1538 1537 1537 1537 1537 1537 1536 1536 1536 1536 1535 1535 1535 1535 1534 1534 1534 1534 1534 1534 1534 1534 1534 1534 1533
1527 1527 1527 1527 1528 1528 1529 1529 1530 1531 1532 1532 1532 1533 1533 1534 1534 1535 1536 1537 1537 1537 1537 1537 1536 1536 1536 1536 1536 1535 1535 1535 1534 1534 1534 1534 1533 1533 1533 1533 1533 1533 1533
1525 1526 1526 1526 1526 1527 1528 1528 1529 1530 1531 1531 1531 1532 1532 1533 1533 1534 1534 1535 1536 1536 1536 1536 1536 1536 1536 1535 1535 1535 1535 1534 1534 1534 1533 1533 1533 1533 1533 1533 1533 1532 1532
1523 1524 1524 1524 1525 1526 1526 1527 1528 1529 1529 1530 1530 1531 1532 1532 1533 1533 1534 1534 1534 1535 1535 1535 1535 1535 1535 1535 1534 1534 1534 1533 1533 1533 1532 1532 1532 1532 1532 1532 1532 1531 1532
1521 1522 1522 1523 1523 1524 1525 1526 1527 1527 1528 1529 1529 1530 1531 1531 1532 1532 1533 1533 1533 1534 1534 1534 1534 1534 1534 1534 1533 1533 1532 1532 1532 1531 1531 1530 1530 1530 1530 1530 1530 1530 1530
1519 1520 1520 1521 1522 1522 1523 1524 1525 1526 1526 1527 1528 1529 1529 1530 1530 1531 1531 1532 1532 1531 1532 1532 1532 1533 1532 1532 1532 1531 1531 1531 1530 1530 1529 1529 1529 1528 1528 1528 1529 1529 1529
1517 1518 1518 1519 1519 1520 1521 1522 1523 1524 1525 1525 1526 1527 1528 1528 1529 1529 1529 1530 1530 1530 1529 1530 1530 1530 1530 1530 1530 1530 1529 1529 1529 1528 1527 1527 1527 1527 1527 1527 1527 1527 1527
1515 1515 1516 1517 1517 1518 1519 1520 1521 1522 1522 1523 1524 1525 1525 1526 1526 1527 1527 1527 1528 1528 1527 1528 1528 1528 1528 1528 1528 1528 1527 1527 1526 1526 1525 1525 1525 1525 1525 1524 1525 1525 1525
1513 1513 1514 1514 1515 1516 1517 1517 1518 1519 1520 1521 1521 1522 1523 1523 1523 1524 1524 1524 1525 1525 1525 1524 1525 1525 1526 1526 1526 1525 1525 1524 1524 1524 1523 1523 1523 1523 1523 1522 1522 1522 1523
1510 1511 1511 1512 1513 1513 1514 1515 1516 1517 1518 1518 1519 1519 1520 1520 1520 1521 1521 1522 1522 1522 1523 1522 1522 1523 1523 1523 1523 1523 1522 1522 1522 1521 1521 1521 1520 1520 1520 1520 1520 1520 1520
1508 1508 1509 1509 1510 1511 1512 1512 1513 1514 1515 1516 1516 1517 1517 1517 1518 1518 1518 1519 1519 1520 1520 1520 1520 1520 1520 1520 1520 1520 1519 1519 1519 1518 1518 1518 1518 1517 1517 1517 1517 1517 1517
1505 1505 1506 1507 1507 1508 1509 1510 1510 1511 1512 1512 1513 1513 1514 1514 1515 1516 1516 1516 1516 1516 1516 1516 1517 1517 1517 1517 1517 1517 1516 1516 1515 1515 1515 1515 1515 1514 1514 1514 1514 1514 1514
1502 1502 1503 1503 1504 1505 1506 1507 1507 1508 1508 1509 1509 1510 1510 1511 1512 1512 1513 1513 1514 1513 1513 1513 1513 1513 1513 1514 1514 1514 1513 1513 1512 1513 1512 1511 1512 1511 1511 1511 1510 1510 1510
1499 1499 1499 1500 1500 1501 1502 1503 1504 1504 1505 1505 1506 1506 1507 1507 1508 1509 1509 1510 1510 1510 1511 1511 1510 1510 1511 1511 1511 1510 1510 1510 1509 1509 1509 1507 1508 1507 1507 1507 1507 1507 1507
1496 1496 1496 1496 1497 1498 1499 1499 1500 1501 1501 1502 1502 1502 1503 1503 1504 1505 1505 1505 1506 1506 1507 1507 1507 1507 1508 1508 1508 1508 1507 1507 1506 1506 1506 1504 1504 1503 1503 1503 1503 1503 1503
1492 1492 1493 1493 1493 1494 1495 1496 1497 1497 1497 1497 1498 1499 1499 1499 1500 1501 1501 1501 1501 1502 1503 1503 1503 1504 1504 1504 1504 1504 1503 1503 1502 1501 1502 1501 1500 1499 1499 1499 1499 1499 1498
1489 1489 1489 1489 1490 1490 1491 1492 1493 1493 1493 1493 1494 1495 1495 1496 1496 1497 1497 1497 1497 1497 1498 1498 1499 1499 1500 1500 1500 1500 1500 1499 1498 1498 1498 1498 1497 1496 1495 1494 1494 1494 1494